Location: Aufkirchen
(47.9603°N, 11.3653°E)
Time: 10:43:39
(UTC+02:00)

Altair - Pass Details

Date: 01 August 2021
Orbit: 1501 x 1682 km, 47.2° (Epoch: 18 September)

Event Time Altitude Azimuth Distance (km) Brightness Sun altitude
Exits shadow 04:00:24 17° 240° (WSW) 3,214 8.6 -15.0°
Maximum altitude 04:08:05 72° 160° (SSE) 1,584 7.5 -14.2°
Drops below altitude 10° 04:17:11 10° 78° (ENE) 3,655 10.3 -13.2°
Sets 04:20:12 0° 77° (ENE) 4,637 11.0 -12.9°
